PROBA-1 1 26958U 01049B 26061.85191896 .00002163 00000+0 14392-3 0 9999 2 26958 97.9625 66.6942 0057065 121.4436 239.2387 15.06977222327600 CUTE-1 (CO-55) 1 27844U 03031E 26061.53865418 .00000422 00000+0 20177-3 0 9994 2 27844 98.6778 71.4263 0010451 131.1798 229.0284 14.24259043176494 CUBESAT XI-IV (CO-57) 1 27848U 03031J 26061.47397015 .00000370 00000+0 18145-3 0 9998 2 27848 98.6809 71.1608 0010073 147.8970 212.2824 14.23555341176199 APRIZESAT 4 1 35684U 09041D 26061.77598200 .00001064 00000+0 13390-3 0 9992 2 35684 98.1500 134.9558 0042320 307.7827 51.9556 14.83692420895586 APRIZESAT 3 1 35686U 09041F 26061.35323873 .00002923 00000+0 25703-3 0 9996 2 35686 98.1879 209.5829 0063225 60.6581 300.0935 14.95862383900403 PROBA-2 1 36037U 09059B 26061.63589822 .00000377 00000+0 98556-4 0 9993 2 36037 98.2426 246.4677 0012078 247.7488 112.2429 14.54785065866035 APRIZESAT 5 1 37792U 11044E 26061.79598053 .00001841 00000+0 24071-3 0 9999 2 37792 98.2401 351.8789 0052253 346.8979 13.0872 14.80829959783046 APRIZESAT 6 1 37793U 11044F 26061.70533802 .00001149 00000+0 16931-3 0 9999 2 37793 98.2424 330.0133 0044532 67.2556 346.7978 14.76733859781432 PROBA-V 1 39159U 13021A 26061.56659132 .00000094 00000+0 59371-4 0 9997 2 39159 98.3495 45.4895 0005395 86.1560 274.0236 14.23571431665945 APRIZESAT 7 1 39416U 13066A 26061.81408032 .00002013 00000+0 20575-3 0 9997 2 39416 97.7587 16.6627 0035262 201.7723 158.1998 14.91254172665370 APRIZESAT 8 1 39425U 13066K 26061.79281428 .00001736 00000+0 19481-3 0 9997 2 39425 97.8107 10.8372 0044596 276.4619 83.1521 14.87398720663858 BUGSAT-1 (TITA) 1 40014U 14033E 26061.83292339 .00008565 00000+0 46573-3 0 9995 2 40014 98.0445 148.2681 0028854 181.6159 178.4982 15.14390924639734 SAUDISAT 4 1 40016U 14033G 26061.66388387 .00001065 00000+0 14719-3 0 9992 2 40016 97.7397 211.5913 0046110 61.0687 299.5138 14.79373683630329 APRIZESAT 9 1 40018U 14033J 26061.36929545 .00001325 00000+0 20208-3 0 9997 2 40018 97.8868 197.2967 0066323 182.6220 177.4651 14.74053070627820 APRIZESAT 10 1 40019U 14033K 26061.79557483 .00000983 00000+0 16231-3 0 9993 2 40019 97.9469 191.2433 0077707 253.2378 106.0292 14.70736622626610 TECHDEMOSAT-1 (TDS-1) 1 40076U 14037H 26061.50783324 .00012465 00000+0 74217-3 0 9990 2 40076 98.3756 43.3374 0004613 271.1472 88.9227 15.11376449632108 TECHNOSAT 1 42829U 17042E 26061.44357090 .00005227 00000+0 37885-3 0 9995 2 42829 97.4139 223.2955 0019546 98.4449 261.8994 15.04208168470657 FLYING LAPTOP 1 42831U 17042G 26061.84261507 .00006380 00000+0 50945-3 0 9992 2 42831 97.4246 221.8228 0018412 117.7950 242.5143 15.00464126470509 HAWK-A 1 43765U 18099H 26061.71262923 .00008442 00000+0 35514-3 0 9997 2 43765 97.4069 115.3721 0034504 301.2229 58.5628 15.23092893396887 HAWK-B 1 43794U 18099AN 26061.67682961 .00008177 00000+0 36248-3 0 9992 2 43794 97.4120 114.9650 0031806 319.1981 40.6873 15.21407140396830 HAWK-C 1 43799U 18099AT 26061.72338813 .00010067 00000+0 38218-3 0 9997 2 43799 97.4047 115.7945 0040679 302.9962 56.7369 15.26246105397663 SALSAT 1 46495U 20068K 26061.53547552 .00011172 00000+0 41124-3 0 9991 2 46495 97.8844 58.2509 0008864 326.6723 33.3956 15.28007427299065 HAWK-2C 1 47502U 21006CT 26061.69265526 .00008304 00000+0 26142-3 0 9995 2 47502 97.2433 108.1543 0006183 210.2299 149.8588 15.33159460283174 HAWK-2A 1 47505U 21006CW 26061.69624741 .00014484 00000+0 45363-3 0 9998 2 47505 97.2474 108.7722 0005782 213.3721 146.7158 15.33179969283170 HAWK-2B 1 47508U 21006CZ 26061.69299307 .00008413 00000+0 26490-3 0 9992 2 47508 97.2347 107.2797 0006326 211.7104 148.3758 15.33150980283176 HAWK-3B 1 48931U 21059BE 26061.49961074 .00042630 00000+0 50900-3 0 9998 2 48931 97.6714 248.7912 0005450 5.4749 354.6566 15.60911280261161 HAWK-3C 1 48948U 21059BX 26061.49937551 .00040639 00000+0 48557-3 0 9991 2 48948 97.6863 254.2757 0005929 7.2047 352.9293 15.60899717261163 HAWK-3A 1 48957U 21059CG 26061.49920514 .00042021 00000+0 50195-3 0 9990 2 48957 97.6799 251.5704 0005546 5.6057 354.5261 15.60902715261167 HAWK-5C 1 52754U 22057Y 26061.41665012 .00023449 00000+0 46310-3 0 9997 2 52754 97.6438 214.6383 0005648 99.2690 260.9198 15.47142312209812 HAWK-5B 1 52756U 22057AA 26061.41652216 .00024236 00000+0 47849-3 0 9994 2 52756 97.6439 212.9781 0005630 94.2107 265.9786 15.47145421209819 HAWK-5A 1 52757U 22057AB 26061.67494864 .00023218 00000+0 45834-3 0 9997 2 52757 97.6441 214.0848 0006045 95.8438 264.3500 15.47153824209852 HAWK-6B 1 55324U 23011A 26061.71708271 .00007470 00000+0 33045-3 0 9999 2 55324 40.5117 252.5747 0003124 340.1039 19.9648 15.21791377171617 HAWK-6C 1 55326U 23011C 26061.58522654 .00007526 00000+0 33292-3 0 9991 2 55326 40.4813 250.2265 0003499 327.3954 32.6638 15.21782056171603 HAWK-6A 1 55327U 23011D 26061.71649594 .00007589 00000+0 33558-3 0 9994 2 55327 40.4968 251.0615 0003184 326.8974 33.1636 15.21787693171628 HAWK-7A 1 56191U 23054P 26061.67354003 .00007463 00000+0 29182-3 0 9993 2 56191 97.2850 311.7201 0004565 65.0983 295.0730 15.26121415160776 HAWK-7B 1 56193U 23054R 26061.73898744 .00006421 00000+0 25149-3 0 9999 2 56193 97.2883 310.0066 0004024 74.3465 285.8218 15.26123826160780 HAWK-7C 1 56200U 23054Y 26061.73884163 .00004234 00000+0 16701-3 0 9992 2 56200 97.2858 310.8107 0004052 66.2025 293.9638 15.26084319160787